Content
SEND FEEDBACK

Daily
Averages
Monthly
Summary
United States of America

SHELBURNE FALLS, MASSACHUSETTS


Home > North America > United States > Massachusetts
Elevation: 122 meters     Latitude: 42 36N     Longitude: 072 44W

WEATHER
 
SELECT A DAY
Number of Records: 217,645;   Date Range: 7/1/96 - 12/18/14
 
SHARE

PRINT THIS DATA

[ ← Previous Day ]
WEATHER ALMANAC - 29 MARCH, 2014
[ Next Day → ]
[ °F ]   °C
Weather ElementAverageHighLow
Temperature5.6 °C11.1 °C (12:52 pm)0 °C (6:43 am)
Dewpoint2.7 °C7 °C (12:50 am)-1.1 °C (6:52 am)
Humidity83.3 %100 % (12:50 am)54 % (12:52 pm)
Barometer1020.7 hPa1024.4 hPa (9:52 am)1014.6 hPa (11:52 pm)
Wind Speed9.3 km/h20.4 km/h (2:52 pm)
Weather ElementAverage
Visibility11.9 km
Wind DirectionESE (112.1 °)

Weather ElementTotal
Precipitation19.05 mm
Heating Degree Days12.8 (Base 18.3)
Averaged from 38 records on 29 March, 2014
WEATHER CONDITIONS BREAKOUT
WIND DIRECTION BREAKOUT
WEATHER BY HOUR - 29 MARCH, 2014
[ °F ]   °C
Local TimeTemperatureDewpointHumidityBarometerVisibilityWind DirectionWind SpeedGust SpeedPrecipitationEventsConditions
12:34 AM6.7 °C5.6 °C93 %1017.9 hPa2.4 kmWNW (300°)11.1 km/h0.25 mmRainLight Rain
12:36 AM6.7 °C6.1 °C96 %1017.9 hPa4.8 kmWNW (290°)16.7 km/h0.25 mmRainLight Rain
12:50 AM7 °C7 °C100 %1018.3 hPa16.1 kmWNW (300°)13 km/h0.25 mmOvercast
12:52 AM7.2 °C6.1 °C93 %1019 hPa16.1 kmWNW (290°)13 km/h0.25 mmOvercast
1:52 AM6.7 °C4.4 °C85 %1020 hPa16.1 kmVariable5.6 km/hClear
2:52 AM5.6 °C3.3 °C85 %1020.7 hPa16.1 kmWNW (300°)9.3 km/hClear
3:52 AM5.6 °C2.8 °C82 %1020.7 hPa16.1 kmWNW (300°)5.6 km/hClear
4:52 AM3.9 °C2.2 °C89 %1020.3 hPa16.1 kmNNE (20°)7.4 km/hClear
5:52 AM2.8 °C1.7 °C93 %1021.7 hPa16.1 kmCalmClear
6:40 AM0.6 °C-0.6 °C92 %1021.7 hPa2.9 kmCalmClear
6:43 AM0 °C-0.6 °C96 %1021.3 hPa1.6 kmNorth (360°)5.6 km/hClear
6:52 AM0 °C-1.1 °C92 %1021.7 hPa1.6 kmNorth (360°)11.1 km/hClear
6:59 AM0 °C-1.1 °C92 %1021 hPa2.4 kmNNE (20°)13 km/hClear
7:04 AM1.1 °C0.6 °C96 %1020.7 hPa4.8 kmNorth (360°)14.8 km/hClear
7:52 AM1.7 °C1.1 °C96 %1022.7 hPa9.7 kmCalmClear
8:52 AM5.6 °C3.3 °C85 %1023.7 hPa16.1 kmCalmPartly Cloudy
9:34 AM7.2 °C3.9 °C80 %1023.7 hPa16.1 kmCalmMostly Cloudy
9:43 AM7.2 °C3.9 °C80 %1024 hPa16.1 kmSSE (150°)5.6 km/hScattered Clouds
9:50 AM7 °C4 °C81 %1024 hPa16.1 kmSSE (160°)5.6 km/hMostly Cloudy
9:52 AM7.2 °C3.9 °C80 %1024.4 hPa16.1 kmCalmMostly Cloudy
10:52 AM8.9 °C2.8 °C66 %1024 hPa16.1 kmVariable9.3 km/hMostly Cloudy
11:47 AM11 °C3 °C58 %1023 hPa16.1 kmENE (60°)11.1 km/hMostly Cloudy
11:52 AM10 °C2.8 °C61 %1023.4 hPa16.1 kmNE (50°)13 km/hMostly Cloudy
12:52 PM11.1 °C2.2 °C54 %1022.4 hPa16.1 kmEast (80°)18.5 km/hMostly Cloudy
1:52 PM10.6 °C2.8 °C59 %1022 hPa16.1 kmESE (120°)11.1 km/hOvercast
2:52 PM10 °C2.8 °C61 %1021.7 hPa16.1 kmESE (110°)20.4 km/hOvercast
3:52 PM8.3 °C2.8 °C68 %1021.3 hPa16.1 kmEast (100°)18.5 km/h0 mmRainLight Rain
4:52 PM7.2 °C3.3 °C76 %1020.7 hPa16.1 kmEast (100°)11.1 km/h0 mmRainLight Rain
5:15 PM6.7 °C3.3 °C79 %1019.6 hPa9.7 kmEast (90°)16.7 km/h0.25 mmRainLight Rain
5:52 PM5.6 °C3.3 °C85 %1020.3 hPa9.7 kmEast (80°)11.1 km/h0.51 mmRainLight Rain
6:34 PM4.4 °C2.8 °C89 %1019.3 hPa9.7 kmNE (50°)11.1 km/h1.02 mmRainLight Rain
6:43 PM4.4 °C2.2 °C86 %1019.3 hPa9.7 kmNNE (30°)5.6 km/h1.02 mmRainLight Rain
6:52 PM4.4 °C2.2 °C86 %1020 hPa9.7 kmNNE (30°)9.3 km/h1.27 mmRainLight Rain
7:52 PM3.9 °C2.2 °C89 %1019.6 hPa12.9 kmNE (50°)11.1 km/h2.03 mmRainLight Rain
8:52 PM3.9 °C2.2 °C89 %1018.6 hPa9.7 kmVariable7.4 km/h1.02 mmRainRain
9:52 PM3.3 °C2.2 °C93 %1017.3 hPa9.7 kmNorth (10°)7.4 km/h3.3 mmRainRain
10:52 PM3.3 °C2.2 °C93 %1015.9 hPa8 kmNE (50°)13 km/h4.06 mmRainRain
11:52 PM3.3 °C1.7 °C89 %1014.6 hPa9.7 kmNE (40°)9.3 km/h3.56 mmRainLight Rain
Hourly data recorded from KORE, located 0 kilometers away from Shelburne Falls, Massachusetts







STORIES FROM OUR PARTNERS